Tracking 29892 objects as of 21-Nov-2024
HD Live streaming from Space Station
objects crossing your sky now

STARLINK-2412

Track STARLINK-2412 now!
10-day predictions
STARLINK-2412 is classified as:


NORAD ID: 48094
Int'l Code: 2021-027C
Perigee: 553.4 km
Apogee: 555.3 km
Inclination: 53.1 °
Period: 95.6 minutes
Semi major axis: 6925 km
RCS: Unknown
Launch date: April 7, 2021
Source: United States (US)
Launch site: AIR FORCE EASTERN TEST RANGE (AFETR)
Your satellite tracking list
Your tracking list is empty




NASA's NSSDC Master Catalog

Two Line Element Set (TLE):
1 48094U 21027C   24325.51945229  .00002686  00000-0  19910-3 0  9995
2 48094  53.0519 140.2505 0001391  80.1049 280.0097 15.06406133200550
Source of the keplerian elements: AFSPC